Overview Statistics Trail Chart Weather Telemetry Raw packets
 

This is the latest recevied weather packets stored in our database for station/object KQ4WWD. If no packets are shown the sender has not sent any weather packets the latest 10 day(s).

<< 11 12 13 14 15 16 17 >>
Time Temp. Humidity Pressure Rain* Wind** Luminosity Snow
1788533978 32.22° C 75% 1015.3 hPa 0 mm - 737 W/m² -
1788533674 32.22° C 76% 1015.4 hPa 0 mm - 721 W/m² -
1788533369 31.67° C 77% 1015.3 hPa 0 mm - 724 W/m² -
1788533065 31.67° C 77% 1015.3 hPa 0 mm - 715 W/m² -
1788532760 31.11° C 80% 1015.3 hPa 0 mm - 546 W/m² -
1788532457 31.11° C 79% 1015.3 hPa 0 mm - 622 W/m² -
1788532175 31.67° C 80% 1015.1 hPa 0 mm - 586 W/m² -
1788531849 31.67° C 79% 1015.6 hPa 0 mm - 499 W/m² -
1788531549 31.11° C 80% 1015.3 hPa 0 mm - 543 W/m² -
1788531245 31.11° C 81% 1015.4 hPa 0 mm - 531 W/m² -
1788530941 30.56° C 83% 1015.3 hPa 0 mm - 530 W/m² -
1788530645 30.56° C 81% 1015.6 hPa 0 mm - 533 W/m² -
1788530340 30.56° C 82% 1015.5 hPa 0 mm - 494 W/m² -
1788530035 30° C 83% 1015.4 hPa 0 mm - 456 W/m² -
1788529732 30° C 83% 1015.4 hPa 0 mm - 403 W/m² -
1788529431 30° C 84% 1015.3 hPa 0 mm - 381 W/m² -
1788529131 30° C 83% 1015.4 hPa 0 mm - 357 W/m² -
1788528826 29.44° C 84% 1015.3 hPa 0 mm - 333 W/m² -
1788528521 29.44° C 84% 1015.4 hPa 0 mm - 324 W/m² -
1788528216 28.89° C 85% 1015 hPa 0 mm - 304 W/m² -
1788527916 28.89° C 85% 1015.3 hPa 0 mm - 280 W/m² -
1788527611 28.89° C 86% 1015 hPa 0 mm - 261 W/m² -
1788527311 28.89° C 85% 1015.1 hPa 0 mm - 251 W/m² -
1788527011 28.89° C 86% 1015 hPa 0 mm - 51 W/m² -
1788526706 28.33° C 86% 1014.9 hPa 0 mm - 46 W/m² -

* Rain latest hour (hover to see other rain measurements)
** Current wind speed in m/s (hover to see current wind gust speed)